Regional Weather Roundup
Issued by NWS

Home | Current Version | Previous Version | Graphics & Text | Print | Product List | Glossary On
Versions: 1 2 3 4 5 6 7 8 9 10 11 12 13 14 15 16 17 18 19 20 21 22 23 24 25 26 27 28 29 30 31 32 33 34 35 36 37 38 39 40 41 42 43 44 45 46 47 48 49 50
000
ASUS45 KCYS 101810
RWRWY

WYOMING REGIONAL WEATHER ROUNDUP
NATIONAL WEATHER SERVICE CHEYENNE WY
1200 PM MDT THU JUL 10 2014

NOTE:  "FAIR" INDICATES FEW OR NO CLOUDS BELOW 12,000 FEET
WITH NO SIGNIFICANT WEATHER AND/OR OBSTRUCTIONS TO VISIBILITY.

WYZ001-101900-
YELLOWSTONE NATIONAL PARK

CITY           SKY/WX    TMP DP  RH WIND       PRES   REMARKS
LK YELLOWSTONE   N/A     67  48  50 MISG      30.25F
6HR MIN TEMP:  53; 6HR MAX TEMP:  67;

W YELLOWSTONE  NOT AVBL

$$
WYZ002>013-054>058-071-098>099-101900-
NORTHERN WYOMING

CITY           SKY/WX    TMP DP  RH WIND       PRES   REMARKS
JACKSON        SUNNY     72  52  49 CALM      30.15R
CODY           NOT AVBL
GREYBULL       LGT RAIN  75  56  51 E5        29.95S
6HR MIN TEMP:  67; 6HR MAX TEMP:  76; 6HR PCP: TRACE;

WORLAND          N/A    N/A N/A N/A MISG      29.96S
SHERIDAN       PTSUNNY   81  48  31 NW9       29.94S
6HR MIN TEMP:  64; 6HR MAX TEMP:  85;

BUFFALO        PTSUNNY   75  52  44 W3        30.03S
6HR MIN TEMP:  60; 6HR MAX TEMP:  76; 6HR PCP: TRACE;

GILLETTE       PTSUNNY   78  59  51 NW8       29.96S
6HR MIN TEMP:  63; 6HR MAX TEMP:  78;

HULETT         FAIR      77  63  61 MISG      29.97
NEWCASTLE      FAIR      79  55  44 MISG      29.95

$$
WYZ014>020-022>026-101>103-101900-
CENTRAL WYOMING

CITY           SKY/WX    TMP DP  RH WIND       PRES   REMARKS
BIG PINEY      CLOUDY    74  49  41 VRB3      30.20S
6HR MIN TEMP:  55; 6HR MAX TEMP:  74; 6HR PCP: TRACE;

PINEDALE       CLOUDY    70  46  43 N6        30.21S
DUBOIS         CLOUDY    72  41  33 NW6       30.16F
LANDER         CLOUDY    81  46  29 N8        30.02S
6HR MIN TEMP:  70; 6HR MAX TEMP:  87;

RIVERTON       CLOUDY    82  46  28 NE13      30.04S
6HR MIN TEMP:  67; 6HR MAX TEMP:  82;

CASPER         MOSUNNY   84  52  33 VRB5      30.03S
6HR MIN TEMP:  58; 6HR MAX TEMP:  85;

DOUGLAS        MOSUNNY   85  55  35 NW14      30.00F
6HR MIN TEMP:  58; 6HR MAX TEMP:  88;


$$
WYZ021-027>030-104>119-101900-
SOUTHERN WYOMING

CITY           SKY/WX    TMP DP  RH WIND       PRES   REMARKS
EVANSTON       PTSUNNY   69  56  62 SW6       30.22F
6HR MIN TEMP:  60; 6HR MAX TEMP:  72; 6HR PCP:  0.07;

KEMMERER       MOCLDY    72  48  43 W10G21    30.22S
FORT BRIDGER   CLOUDY    75  50  40 W14G20    30.24S
ROCK SPRINGS   MOSUNNY   78  46  32 W18G25    30.17S
6HR MIN TEMP:  65; 6HR MAX TEMP:  80;

DIXON          MOCLDY    81  44  27 S16       30.19F
RAWLINS        MOSUNNY   83  44  25 SW13      30.16F
6HR MIN TEMP:  66; 6HR MAX TEMP:  83;

SARATOGA       FAIR      79  43  27 W10G21    30.20F
LARAMIE        MOSUNNY   79  43  27 W14       30.19F
6HR MIN TEMP:  57; 6HR MAX TEMP:  81;

CHEYENNE       MOSUNNY   90  42  18 W12G20    30.09F
6HR MIN TEMP:  59; 6HR MAX TEMP:  90;

TORRINGTON     SUNNY     83  59  44 VRB3      29.94F
6HR MIN TEMP:  56; 6HR MAX TEMP:  83;


$$


USA.gov is the U.S. government's official web portal to all federal, state and local government web resources and services.